Weather History for Port Weller, ON

Change the Weather History Date:

Thursday, September 20, 2012

  Actual Average Record
Temperature  
Mean Temperature 62 °F -  
Max Temperature 69 °F - - ()
Min Temperature 54 °F - - ()
Degree Days  
Heating Degree Days 4    
Growing Degree Days 12 (Base 50)    
Moisture  
Dew Point 48 °F    
Average Humidity 58    
Maximum Humidity 76    
Minimum Humidity 25    
Precipitation  
Precipitation 0.00 in - - ()
Sea Level Pressure  
Sea Level Pressure 29.97 in    
Wind  
Wind Speed 10 mph ()    
Max Wind Speed 18 mph    
Max Gust Speed 26 mph    
T = Trace of Precipitation, MM = Missing Value Source: Averaged Metar Reports

Daily Weather History Graph

Daily Weather History Graph

Search for Another Location

Airport:

Trip Planner

Search our weather history database for the weather conditions in past years. The results will help you decide how hot, cold, wet, or windy it might be!

Date:

Astronomy

Sep. 20, 2012 Rise Set
Actual Time 7:02 AM EDT 7:16 PM EDT
Civil Twilight 6:33 AM EDT 7:45 PM EDT
Nautical Twilight 6:00 AM EDT 8:18 PM EDT
Astronomical Twilight 5:26 AM EDT 8:52 PM EDT
Moon 12:28 PM EDT (9/20) 10:07 PM EDT (9/20)
Length of Visible Light 13h 11m
Length of Day
12h 14m
Waxing Crescent, 26% of the Moon is Illuminated
Sep 20
Waxing Crescent
Sep 22
First Quarter
Sep 29
Full
Oct 8
Last Quarter
Oct 15
New

Hourly Weather History & Observations

Time (EDT) Temp. Dew Point Humidity Pressure Visibility Wind Dir Wind Speed Gust Speed Precip Events Conditions
2:00 AM 56 °F 47 °F 63% 30.09 in - SSE 9.2 mph - -  
2:00 AM 55.8 °F 46.8 °F 72% 30.09 in - SSE 9.2 mph - N/A   Unknown
3:00 AM 55.8 °F 47.7 °F 74% 30.07 in - SSE 11.5 mph - N/A   Unknown
4:00 AM 55.9 °F 47.3 °F 73% 30.06 in - SSE 11.5 mph - N/A   Unknown
5:00 AM 57 °F 48 °F 62% 30.06 in - SSE 10.4 mph - -  
5:00 AM 56.7 °F 47.7 °F 72% 30.06 in - SSE 10.4 mph - N/A   Unknown
6:00 AM 55.4 °F 45.7 °F 70% 30.06 in - SSE 13.8 mph - N/A   Unknown
7:00 AM 55.2 °F 45.9 °F 71% 30.05 in - SSE 15.0 mph - N/A   Unknown
8:00 AM 57 °F 46 °F 57% 30.02 in - SSE 18.4 mph - -  
8:00 AM 57.0 °F 46.0 °F 67% 30.02 in - SSE 18.4 mph - N/A   Unknown
9:00 AM 59.5 °F 46.8 °F 63% 30.02 in - South 17.3 mph - N/A   Unknown
10:00 AM 62.8 °F 47.3 °F 57% 30.00 in - South 18.4 mph - N/A   Unknown
11:00 AM 66 °F 44 °F 34% 29.99 in - South 15.0 mph - -  
11:00 AM 65.8 °F 44.2 °F 46% 29.99 in - South 15.0 mph 24.2 mph N/A   Unknown
12:00 PM 64.8 °F 43.7 °F 46% 29.98 in - South 13.8 mph 20.7 mph N/A   Unknown
1:00 PM 67.3 °F 44.8 °F 44% 29.97 in - SSW 11.5 mph 23.0 mph N/A   Unknown
2:00 PM 68 °F 40 °F 25% 29.94 in - South 15.0 mph - -  
2:00 PM 68.2 °F 40.3 °F 36% 29.94 in - South 15.0 mph 24.2 mph N/A   Unknown
3:00 PM 67.3 °F 43.0 °F 41% 29.92 in - South 12.7 mph 18.4 mph N/A   Unknown
4:00 PM 68.0 °F 46.6 °F 46% 29.87 in - South 17.3 mph 26.5 mph N/A   Unknown
5:00 PM 68 °F 44 °F 31% 29.88 in - South 8.1 mph - -  
5:00 PM 68.2 °F 44.1 °F 42% 29.88 in - South 8.1 mph - N/A   Unknown
6:00 PM 66.7 °F 55.2 °F 66% 29.88 in - West 5.8 mph - N/A   Unknown
7:00 PM 64.8 °F 54.7 °F 70% 29.90 in - NW 6.9 mph - N/A   Unknown
8:00 PM 64 °F 54 °F 62% 29.90 in - North 2.3 mph - -  
8:00 PM 63.9 °F 54.1 °F 71% 29.90 in - North 2.3 mph - N/A   Unknown
9:00 PM 63.9 °F 56.1 °F 76% 29.91 in - SE 4.6 mph - N/A   Unknown
10:00 PM 63.5 °F 55.4 °F 75% 29.89 in - SE 4.6 mph - N/A   Unknown
11:00 PM 64 °F 54 °F 63% 29.88 in - SSE 5.8 mph - -  
11:00 PM 64.0 °F 54.5 °F 71% 29.88 in - SSE 5.8 mph - N/A   Unknown